Simultaneous Nadir Overpasses (SNOs) Predictions

Prediction of SNOs between AURA and NPP Satellite Orbit:

Table of predicted SNOs for the next 14.0 days since TLE Epoch: 10/30/2021
Index Date (AURA) Time (AURA) Lat,Lon (AURA) SZA (AURA ) Date (NPP) Time (NPP) Lat,Lon (NPP) SZA (NPP ) Distance(km) Time Diff (sec)
1 11/01/2021 02:02:50 -78.97,-137.25 73.44 11/01/2021 02:01:39 -78.98,-137.24 73.38 0.41 71
2 11/01/2021 02:52:09 79.25, 32.08 106.23 11/01/2021 02:52:16 79.24, 31.97 106.24 2.52 7
3 11/03/2021 18:19:16 -79.08, -20.74 72.75 11/03/2021 18:18:34 -79.08, -20.73 72.71 0.20 42
4 11/03/2021 19:08:35 79.35, 148.61 106.92 11/03/2021 19:09:11 79.34, 148.51 106.91 2.45 36
5 11/06/2021 10:35:41 -79.25, 96.18 72.16 11/06/2021 10:35:28 -79.25, 96.28 72.17 2.25 13
6 11/06/2021 11:25:01 79.47, -94.69 107.56 11/06/2021 11:26:06 79.47, -94.69 107.51 0.10 65
7 11/09/2021 02:02:49 78.99, 42.82 108.94 11/09/2021 02:01:49 78.98, 42.76 109.00 1.35 60
8 11/09/2021 02:52:08 -79.31,-147.50 71.48 11/09/2021 02:52:25 -79.31,-147.48 71.49 0.34 17
9 11/11/2021 18:19:14 79.12, 159.49 109.52 11/11/2021 18:18:44 79.11, 159.46 109.55 0.92 30



Historial Predications of SNOs between AURA and NPP
